Cloud_Cover
100 100 100 100 100 100 100 100 100 100 100 100 100 100 100 100 100 100 100 100 100 100
100 100 100 100 100 100 100 100 100 100 100 100 100 100 100 100 100 100 100 100 100 100
100 100 100 100 100 100 100 100 100 100 100 100 100 100 91 100 100 100 100 100 100 100
100 100 100 100 100 100 100 100 100 100 100 100 100 100 94 68 100 100 100 100 100 100
100 100 100 100 100 100 100 100 100 100 100 100 100 100 95 79 95 85 100 99 100 100
100 100 100 100 100 100 100 100 100 100 100 100 100 100 87 100 100 100 100 91 100 100
100 100 98 87 100 100 100 100 100 100 100 100 100 100 100 100 100 100 100 89 100 99
100 100 100 100 100 100 100 100 100 100 100 100 100 100 100 100 100 100 100 100 100 100
100 100 100 100 100 100 100 100 100 100 100 100 100 100 100 100 100 100 100 100 100 100
100 100 100 100 100 100 100 100 100 100 100 100 100 100 100 100 100 100 100 100 61 2
100 100 100 100 100 100 100 100 100 100 100 100 100 100 100 59 49 68 42 21 2 0
64 84 100 100 100 100 100 100 100 86 98 100 100 100 99 26 3 5 5 5 5 5
17 5 5 5 5 5 5 9 16 7 14 25 61 4 92 74 12 5 5 8 85 98
5 5 7 4 5 5 5 9 27 24 61 93 69 77 12 100 90 37 33 100 100 100